Regional Weather Roundup
Issued by NWS

Home | Current Version | Previous Version | Text Only | Print | Product List | Glossary Off
Versions: 1 2 3 4 5 6 7 8 9 10 11 12 13 14 15 16 17 18 19 20 21 22 23 24 25 26 27 28 29 30 31 32 33 34 35 36 37 38 39 40 41 42 43 44 45 46 47 48 49 50

000
ASUS43 KBIS 190502
RWRND

NORTH DAKOTA REGIONAL WEATHER ROUNDUP
NATIONAL WEATHER SERVICE BISMARCK ND
1200 AM CDT TUE SEP 19 2017

NOTE: "FAIR" INDICATES FEW OR NO CLOUDS BELOW 12,000 FEET WITH NO
SIGNIFICANT WEATHER AND/OR OBSTRUCTIONS TO VISIBILITY.


NDZ001>003-009>011-017-190600-
NORTHWEST NORTH DAKOTA

CITY           SKY/WX    TMP DP  RH WIND       PRES   REMARKS
WILLISTON      CLOUDY    63  45  51 SE8G20    29.64F
MINOT          CLOUDY    55  50  83 E8        29.72F
MINOT AFB      CLOUDY    53  49  86 SE9       29.72F
$$

NDZ018>021-031>035-040>046-190600-
SOUTHWEST NORTH DAKOTA

CITY           SKY/WX    TMP DP  RH WIND       PRES   REMARKS
BISMARCK       CLOUDY    54  49  83 NE6       29.74F
DICKINSON      PTCLDY    57  45  64 SE12      29.67F
GARRISON         N/A     57  51  80 E9        29.72F
HETTINGER ARPT CLOUDY    60  40  47 E15       29.71F
$$

NDZ004>008-012>016-024-026-027-054-190600-
NORTHEAST NORTH DAKOTA

CITY           SKY/WX    TMP DP  RH WIND       PRES   REMARKS
GRAND FORKS    CLOUDY    59  58  96 SE9       29.83S
GRND FRKS AFB  CLOUDY    59  55  88 SE9       29.84F
DEVILS LAKE    CLEAR     53  51  93 E7        29.81S FOG
$$

NDZ022-023-025-028>030-036>039-047>053-190600-
SOUTHEAST NORTH DAKOTA

CITY           SKY/WX    TMP DP  RH WIND       PRES   REMARKS
FARGO          CLOUDY    61  58  90 SE14G20   29.83R
JAMESTOWN      FOG       48  48 100 CALM      29.79F VSB 1/4
$$





USA.gov is the U.S. government's official web portal to all federal, state and local government web resources and services.